Regional Weather Roundup
Issued by NWS

Home | Current Version | Previous Version | Graphics & Text | Print | Product List | Glossary On
Versions: 1 2 3 4 5 6 7 8 9 10 11 12 13 14 15 16 17 18 19 20 21 22 23 24 25 26 27 28 29 30 31 32 33 34 35 36 37 38 39 40 41 42 43 44 45 46 47 48 49 50
153
ASUS43 KOAX 011210
RWRNE

WEATHER ROUNDUP FOR NEBRASKA
NATIONAL WEATHER SERVICE OMAHA NE
700 AM CDT SAT OCT 01 2016

NOTES: SATELLITE DATA IS BEING USED TO AUGMENT CLOUD COVER ABOVE
       12000 FEET.
       "FAIR" INDICATES FEW OR NO CLOUDS BELOW 12,000 FEET WITH NO
       SIGNIFICANT WEATHER AND/OR OBSTRUCTIONS TO VISIBILITY.

  * THESE STATIONS DO NOT REPORT WEATHER SUCH AS RAIN...SNOW OR FOG.

NEZ001>004-019>022-054>056-011300-
NEBRASKA PANHANDLE

CITY           SKY/WX    TMP DP  RH WIND       PRES   REMARKS
SCOTTSBLUFF    CLEAR     46  43  89 CALM      30.07S
6HR MIN TEMP:  46; 6HR MAX TEMP:  53;

ALLIANCE       CLEAR     46  43  89 SE9       30.07S
6HR MIN TEMP:  45; 6HR MAX TEMP:  53;

CHADRON        CLEAR     50  44  80 W5        30.03S
6HR MIN TEMP:  50; 6HR MAX TEMP:  64;

KIMBALL        CLEAR     42  42 100 SW6       30.12S
SIDNEY         CLEAR     43  41  93 SW5       30.11S
6HR MIN TEMP:  42; 6HR MAX TEMP:  53;

$$

NEZ057>060-069>072-079>082-011300-
SOUTHWEST NEBRASKA

CITY           SKY/WX    TMP DP  RH WIND       PRES   REMARKS
NORTH PLATTE   PTCLDY    49  44  83 SE8       30.12S
6HR MIN TEMP:  48; 6HR MAX TEMP:  55;

IMPERIAL       CLEAR     47  43  86 SE6       30.11S
6HR MIN TEMP:  47; 6HR MAX TEMP:  56;

LEXINGTON      CLOUDY    47  44  89 E5        30.13S
MCCOOK         CLEAR     47  44  90 E3        30.12S
6HR MIN TEMP:  47; 6HR MAX TEMP:  54;

OGALLALA       CLEAR     49  46  86 CALM      30.11S
$$

NEZ005>010-023>029-035>040-094-011300-
NORTH CENTRAL NEBRASKA

CITY           SKY/WX    TMP DP  RH WIND       PRES   REMARKS
VALENTINE      CLEAR     47  43  86 E7        30.08F
6HR MIN TEMP:  46; 6HR MAX TEMP:  59;

AINSWORTH      CLEAR     49  45  85 S7        30.10S
BROKEN BOW     CLOUDY    42  41  96 CALM      30.13R
6HR MIN TEMP:  41; 6HR MAX TEMP:  53;

O`NEILL        CLOUDY    47  42  81 SE3       30.14S
ORD            PTCLDY    42  39  89 CALM      30.13S
6HR MIN TEMP:  41; 6HR MAX TEMP:  50; 6HR PCP: TRACE;

THEDFORD       CLOUDY    47  45  91 CALM      30.11S
$$

NEZ041-046>049-061>064-073>077-083>087-011300-
SOUTH CENTRAL NEBRASKA

CITY           SKY/WX    TMP DP  RH WIND       PRES   REMARKS
GRAND ISLAND   CLOUDY    50  47  89 CALM      30.15S
6HR MIN TEMP:  50; 6HR MAX TEMP:  54;

AURORA         PTCLDY    47  46  99 CALM      30.15R
HASTINGS       PTCLDY    50  44  80 E3        30.15R
6HR MIN TEMP:  49; 6HR MAX TEMP:  55;

HEBRON         CLOUDY    47  46  97 CALM      30.14S
HOLDREGE       CLOUDY    45  42  88 SE5       30.13S
KEARNEY *      PTCLDY    48  43  81 CALM      30.13S
YORK           CLOUDY    46  46 100 CALM      30.14S
$$

NEZ011>018-030>034-042>045-011300-
NORTHEAST NEBRASKA

CITY           SKY/WX    TMP DP  RH WIND       PRES   REMARKS
NORFOLK        PTCLDY    43  42  97 SE5       30.15S
6HR MIN TEMP:  43; 6HR MAX TEMP:  49;

ALBION         CLOUDY    42  41  95 CALM      30.15S
BLAIR          CLOUDY    57  55  91 CALM      30.14S
FREMONT        CLOUDY    54  52  95 CALM      30.16R
TEKAMAH        CLOUDY    57  54  89 CALM      30.15S
6HR MIN TEMP:  51; 6HR MAX TEMP:  57;

WAYNE          PTCLDY    42  41  97 CALM      30.16F
$$

NEZ050>053-065>068-078-088>093-011300-
SOUTHEAST NEBRASKA

CITY           SKY/WX    TMP DP  RH WIND       PRES   REMARKS
LINCOLN        CLEAR     44  43  96 N5        30.16F
6HR MIN TEMP:  44; 6HR MAX TEMP:  56;

OMAHA EPPLEY   CLOUDY    58  54  86 NW5       30.15R
6HR MIN TEMP:  55; 6HR MAX TEMP:  58;

BEATRICE       CLOUDY    46  46 100 CALM      30.15R FOG
FALLS CITY     CLOUDY    54  53  97 NW3       30.13F
6HR MIN TEMP:  50; 6HR MAX TEMP:  54;

NEBRASKA CITY  CLOUDY    55  54  97 CALM      30.15S
PLATTSMOUTH    CLOUDY    56  52  88 CALM      30.15S
$$

NEZ044-045-051>053-067-011300-
OMAHA AREA

CITY           SKY/WX    TMP DP  RH WIND       PRES   REMARKS
OMAHA EPPLEY   CLOUDY    58  54  86 NW5       30.15R
6HR MIN TEMP:  55; 6HR MAX TEMP:  58;

BLAIR          CLOUDY    57  55  91 CALM      30.14S
FREMONT        CLOUDY    54  52  95 CALM      30.16R
MILLARD        CLOUDY    59  55  85 N3        30.15S
OFFUTT AFB     CLOUDY    57  57 100 NW1       30.14R
PLATTSMOUTH    CLOUDY    56  52  88 CALM      30.15S
WAHOO          FAIR      46  46  97 N5        30.15S
$$




USA.gov is the U.S. government's official web portal to all federal, state and local government web resources and services.